Guymon, OK

8:44 PM CDT on July 27, 2017 (GMT -0500)
Guymon Municipal

Weather History for KGUY - March, 2012

Change the Weather History Date:

Friday, March 16, 2012

  Actual Average Record
Temperature  
Mean Temperature 62 °F 46 °F  
Max Temperature 87 °F 61 °F 89 °F (2017)
Min Temperature 37 °F 32 °F 18 °F (2002)
Degree Days  
Heating Degree Days 3 19  
Month to date heating degree days 214 335  
Since 1 July heating degree days 3507 3802  
Cooling Degree Days 0 0  
Month to date cooling degree days 0 0  
Year to date cooling degree days 0 0  
Growing Degree Days 12 (Base 50)    
Moisture  
Dew Point 22 °F    
Average Humidity 35    
Maximum Humidity 63    
Minimum Humidity 6    
Precipitation  
Precipitation 0.00 in 0.05 in 0.00 in (2017)
Month to date precipitation 0.18 0.73  
Year to date precipitation 0.51 1.60  
Snow  
Snow 0.00 in - - ()
Month to date snowfall T  
Since 1 July snowfall 9.1  
Snow Depth 0.00 in    
Sea Level Pressure  
Sea Level Pressure 29.78 in    
Wind  
Wind Speed 12 mph (SSW)    
Max Wind Speed 30 mph    
Max Gust Speed 37 mph    
Visibility 10 miles    
Events      
T = Trace of Precipitation, MM = Missing Value Source: NWS Daily Summary

Daily Weather History Graph

Daily Weather History Graph

Search for Another Location

Airport or City:

Trip Planner

Search our weather history database for the weather conditions in past years. The results will help you decide how hot, cold, wet, or windy it might be!

Date:

Astronomy

Mar. 16, 2012 Rise Set
Actual Time 7:54 AM CDT 7:54 PM CDT
Civil Twilight 7:28 AM CDT 8:20 PM CDT
Nautical Twilight 6:58 AM CDT 8:50 PM CDT
Astronomical Twilight 6:28 AM CDT 9:21 PM CDT
Moon 4:06 AM CDT (3/16) 2:25 PM CDT (3/16)
Length of Visible Light 12h 51m
Length of Day
12h 00m
Waning Crescent, 32% of the Moon is Illuminated
Mar 16
Waning Crescent
Mar 22
New
Mar 30
First Quarter
Apr 6
Full
Apr 13
Last Quarter

Hourly Weather History & Observations

Time (CDT) Temp. Windchill Dew Point Humidity Pressure Visibility Wind Dir Wind Speed Gust Speed Precip Events Conditions
12:53 AM 54.0 °F - 30.0 °F 40% 29.89 in 10.0 mi Calm Calm - N/A   Clear
1:53 AM 48.9 °F - 28.9 °F 46% 29.88 in 10.0 mi Calm Calm - N/A   Clear
2:53 AM 44.1 °F - 28.9 °F 55% 29.87 in 10.0 mi Calm Calm - N/A   Clear
3:53 AM 44.1 °F - 30.0 °F 58% 29.86 in 10.0 mi Calm Calm - N/A   Clear
4:53 AM 41.0 °F 35.8 °F 28.0 °F 60% 29.85 in 10.0 mi SSW 8.1 mph - N/A   Clear
5:53 AM 39.9 °F 33.9 °F 27.0 °F 60% 29.86 in 10.0 mi South 9.2 mph - N/A   Clear
6:53 AM 42.1 °F 36.1 °F 24.1 °F 49% 29.86 in 10.0 mi SW 10.4 mph - N/A   Clear
7:53 AM 41.0 °F 35.2 °F 21.9 °F 47% 29.86 in 10.0 mi SW 9.2 mph - N/A   Clear
8:53 AM 46.9 °F - 21.9 °F 37% 29.87 in 10.0 mi SW 8.1 mph - N/A   Clear
9:53 AM 59.0 °F - 21.9 °F 24% 29.86 in 10.0 mi WSW 9.2 mph - N/A   Clear
10:53 AM 68.0 °F - 21.9 °F 17% 29.83 in 10.0 mi South 9.2 mph - N/A   Clear
11:53 AM 75.0 °F - 21.0 °F 13% 29.83 in 10.0 mi SSW 11.5 mph - N/A   Clear
12:53 PM 79.0 °F - 21.0 °F 12% 29.78 in 10.0 mi South 9.2 mph - N/A   Clear
1:53 PM 84.0 °F - 18.0 °F 9% 29.75 in 10.0 mi South 10.4 mph - N/A   Clear
2:53 PM 84.9 °F - 15.1 °F 7% 29.71 in 10.0 mi South 16.1 mph 28.8 mph N/A   Clear
3:53 PM 86.0 °F - 12.9 °F 7% 29.68 in 10.0 mi SSW 21.9 mph 29.9 mph N/A   Clear
4:53 PM 86.0 °F - 12.0 °F 6% 29.67 in 10.0 mi SSW 20.7 mph 28.8 mph N/A   Clear
5:53 PM 86.0 °F - 10.9 °F 6% 29.65 in 10.0 mi SW 20.7 mph 28.8 mph N/A   Clear
6:53 PM 82.9 °F - 10.0 °F 6% 29.65 in 10.0 mi SW 17.3 mph - N/A   Clear
7:53 PM 71.1 °F - 10.0 °F 9% 29.69 in 10.0 mi SSW 9.2 mph - N/A   Clear
8:53 PM 62.1 °F - 12.9 °F 15% 29.70 in 10.0 mi SSW 6.9 mph - N/A   Clear
9:53 PM 59.0 °F - 14.0 °F 17% 29.71 in 10.0 mi South 8.1 mph - N/A   Clear
10:53 PM 64.0 °F - 28.9 °F 27% 29.70 in 10.0 mi South 23.0 mph 33.4 mph N/A   Clear
11:53 PM 64.0 °F - 51.1 °F 63% 29.69 in 10.0 mi South 18.4 mph - N/A   Clear